This is the latest recevied weather packets stored in our database for station/object N3MFL. If no packets are shown the sender has not sent any weather packets the latest 10 day(s).
| Time | Temp. | Humidity | Pressure | Rain* | Wind** | Luminosity | Snow |
|---|---|---|---|---|---|---|---|
| 1778145558 | 10° C | 95% | 1008.4 hPa | 1.78 mm | - | 0 W/m² | - |
| 1778145254 | 10° C | 95% | 1008 hPa | 1.78 mm | - | 0 W/m² | - |
| 1778144950 | 10° C | 95% | 1008.4 hPa | 1.27 mm | - | 0 W/m² | - |
| 1778144647 | 10° C | 95% | 1008.5 hPa | 1.27 mm | - | 0 W/m² | - |
| 1778144343 | 10° C | 95% | 1008.8 hPa | 0 mm | - | 0 W/m² | - |
| 1778144040 | 10° C | 95% | 1008.3 hPa | 0 mm | - | 0 W/m² | - |
| 1778143738 | 10° C | 95% | 1008.2 hPa | 0 mm | - | 0 W/m² | - |
| 1778143434 | 10° C | 95% | 1007.9 hPa | 1.78 mm | - | 0 W/m² | - |
| 1778143131 | 10° C | 94% | 1008 hPa | 3.05 mm | - | 0 W/m² | - |
| 1778142828 | 10° C | 94% | 1008.4 hPa | 1.27 mm | - | 0 W/m² | - |
| 1778142524 | 10° C | 94% | 1007.9 hPa | 3.56 mm | - | 0 W/m² | - |
| 1778142219 | 10° C | 94% | 1008.2 hPa | 3.56 mm | - | 0 W/m² | - |
| 1778141917 | 10° C | 93% | 1007.8 hPa | 1.78 mm | - | 0 W/m² | - |
| 1778141613 | 10° C | 93% | 1008.3 hPa | 3.05 mm | - | 0 W/m² | - |
| 1778141310 | 10.56° C | 93% | 1007.5 hPa | 7.11 mm | - | 0 W/m² | - |
| 1778141006 | 10.56° C | 93% | 1008.2 hPa | 11.94 mm | - | 0 W/m² | - |
| 1778140701 | 10.56° C | 92% | 1008.5 hPa | 10.67 mm | - | 0 W/m² | - |
| 1778140398 | 11.11° C | 91% | 1008.3 hPa | 9.65 mm | - | 0 W/m² | - |
| 1778140095 | 11.67° C | 91% | 1008.8 hPa | 9.65 mm | - | 0 W/m² | - |
| 1778139792 | 12.22° C | 91% | 1008.3 hPa | 4.32 mm | - | 0 W/m² | - |
| 1778139489 | 12.22° C | 91% | 1008.2 hPa | 7.11 mm | - | 0 W/m² | - |
| 1778139186 | 12.78° C | 90% | 1007.7 hPa | 6.1 mm | - | 0 W/m² | - |
| 1778138883 | 12.78° C | 88% | 1007.4 hPa | 1.27 mm | - | 0 W/m² | - |
| 1778138580 | 12.78° C | 90% | 1007.5 hPa | 0 mm | - | 0 W/m² | - |
| 1778138278 | 12.78° C | 92% | 1006.8 hPa | 0 mm | - | 0 W/m² | - |
* Rain latest hour (hover to see other rain measurements)
** Current wind speed in m/s (hover to see current wind gust speed)